Voltar ao catálogo

STARLINK-5240

AtivoComunicaçõesVLEO
NORAD 54187·PAYLOAD·🇺🇸 United States

Lançado Oct 28, 2022 de Vandenberg Space Force Base

Loading…

Próximas Passagens (próximas 24 horas)

TLE

AtualizadoSource: CelesTrak SupGP

Época: Sep 15, 2026, 01:30 UTC

1 54187C 22141AG  26258.06298611 -.00044526  00000+0 -13155-2 0  2588
2 54187  53.1578 219.2756 0001310  91.3551  45.4955 15.34413334    11

Acompanhe STARLINK-5240 em tempo real com AllMySat

Download on the App Store